Regional Weather Roundup
Issued by NWS

Home | Current Version | Previous Version | Graphics & Text | Print | Product List | Glossary On
Versions: 1 2 3 4 5 6 7 8 9 10 11 12 13 14 15 16 17 18 19 20 21 22 23 24 25 26 27 28 29 30 31 32 33 34 35 36 37 38 39 40 41 42 43 44 45 46 47 48 49 50
000
ASUS43 KMPX 172201
RWRMN
WEATHER ROUNDUP FOR MINNESOTA
NATIONAL WEATHER SERVICE TWIN CITIES/CHANHASSEN MN
500 PM CDT THU AUG 17 2017


NOTE: "FAIR" INDICATES FEW OR NO CLOUDS BELOW 12,000 FEET WITH NO
SIGNIFICANT WEATHER AND/OR OBSTRUCTIONS TO VISIBILITY. N/A MEANS
CURRENT SKY AND/OR WEATHER CONDITIONS ARE NOT AVAILABLE.

MNZ060>063-068>070-172300-
   Twin Cities Metro

CITY           SKY/WX    TMP DP  RH WIND       PRES   REMARKS
TWIN CITIES    CLOUDY    73  62  68 NW20G29   29.75R
ST PAUL        CLOUDY    72  63  73 NW17G26   29.74R
CRYSTAL        CLOUDY    72  59  63 NW20G26   29.75R
BLAINE         PTSUNNY   73  63  68 NW18G29   29.75R
LAKEVILLE      CLOUDY    72  63  73 NW15G22   29.76R
EDEN PRAIRIE   CLOUDY    73  62  68 NW17G25   29.76R
SOUTH ST PAUL  CLOUDY    73  61  65 NW17G28   29.74R
LAKE ELMO      CLOUDY    70  63  78 NW15G21   29.75R
$$
MNZ001>005-007-008-013>017-022>024-027-028-172300-
   Northwest Minnesota

CITY           SKY/WX    TMP DP  RH WIND       PRES   REMARKS
BEMIDJI        PTSUNNY   72  58  60 N12       29.83R
HALLOCK        MOSUNNY   81  54  39 N9        29.81F
ROSEAU         SUNNY     79  59  50 N13       29.81S
WARROAD        SUNNY     75  63  64 E3        29.81F
CROOKSTON      MOSUNNY   79  59  50 NW9       29.84S
FOSSTON        SUNNY     79  57  47 NW9       29.84S
DETROIT LAKES  SUNNY     73  55  53 N14G20    29.86R
MOORHEAD       SUNNY     75  59  57 NW10      29.84S
PARK RAPIDS    SUNNY     74  58  57 N14       29.82S
MAHNOMEN       FAIR      76  56  51 N13G20    29.84R
$$
MNZ006-009>011-018-025>026-172300-
   North Central Minnesota

CITY           SKY/WX    TMP DP  RH WIND       PRES   REMARKS
BAUDETTE       CLOUDY    74  56  53 N9G18     29.81S
FLAG ISLAND    CLOUDY    75  54  46 NW6       29.80S
INTL FALLS     CLOUDY    67  59  75 N9        29.80S
WASKISH        PTSUNNY   72  57  60 N6        29.82R
BIG FORK       CLOUDY    64  59  82 N5        29.80S
LONGVILLE      CLOUDY    66  61  82 N7        29.81S
GRAND RAPIDS   CLOUDY    64  60  87 N12       29.81R
CRANE LAKE     CLOUDY    63  61  94 N7        29.78S
ORR            CLOUDY    61  57  88 NW6       29.76S
COOK           CLOUDY    61  59  94 NW6       29.78R
WALKER         FAIR      70  57  65 NW9G17    29.82R
$$
MNZ012-019>021-037-172300-
   Northeast Minnesota

CITY           SKY/WX    TMP DP  RH WIND       PRES   REMARKS
DULUTH         DRIZZLE   62  61  96 NW9       29.72R
ELY            CLOUDY    61  61 100 NW5       29.73R
HIBBING        CLOUDY    61  59  93 NW17      29.77R
EVELETH        CLOUDY    63  58  84 N12G22    29.76R
DULUTH HARBOR  CLOUDY    66  63  88 NW14      29.70R
TWO HARBORS    PTSUNNY   66  63  88 N7        29.67
GRAND MARAIS     N/A     67  59  75 NE12G18   29.61R
G MARAIS ARPRT CLOUDY    59  54  82 N12       29.67R
$$
MNZ029>031-032-039>041-046>048-054>057-064-172300-
   West Central Minnesota

CITY           SKY/WX    TMP DP  RH WIND       PRES   REMARKS
FERGUS FALLS   SUNNY     75  61  60 N15       29.83S
WHEATON        SUNNY     75  57  53 NW13      29.86S
MORRIS         SUNNY     75  64  69 N14G21    29.84R
ALEXANDRIA     MOSUNNY   74  59  59 NW14G22   29.85S
ELBOW LAKE     FAIR      74  62  66 W14G20    29.85R HAZE
WADENA         MOSUNNY   73  61  64 N10       29.82S
GLENWOOD       SUNNY     75  61  60 N14G22    29.84S
APPLETON       SUNNY     75  59  57 NW13      29.84S
BENSON         SUNNY     77  61  57 N15G22    29.85S
ORTONVILLE     SUNNY     75  57  53 MISG      29.86R
MADISON        SUNNY     79  61  53 N14       29.85S
WILLMAR        FAIR      75  63  64 NW17      29.84R
$$
MNZ033>034-036-042>043-049>051-058-059-172300-
   Central Minnesota

CITY           SKY/WX    TMP DP  RH WIND       PRES   REMARKS
ST CLOUD       CLOUDY    69  63  81 NW12      29.79R
SAUK CENTRE    FAIR      73  62  67 NW15      29.82S
PAYNESVILLE    MOSUNNY   73  63  69 NW13      29.82S
AITKIN         CLOUDY    66  59  77 NW12G18   29.78R
PINE RIVER     CLOUDY    66  57  72 N10       29.85R
BRAINERD       CLOUDY    68  60  75 N12       29.80R
STAPLES        MOSUNNY   72  57  60 N14       29.82S
LONG PRAIRIE   PTSUNNY   72  61  68 NW13      29.82S
LITTLE FALLS   CLOUDY    70  59  68 NW9G18    29.80S
LITCHFIELD     MOSUNNY   73  63  68 NW16G25   29.82R
BUFFALO        CLOUDY    70  60  71 W14G20    29.80R
MAPLE LAKE     CLOUDY    71  63  77 NW12G21   29.80S
HUTCHINSON     PTSUNNY   74  65  74 NW14      29.82R
$$
MNZ037-044-045-052-053-172300-
   East Central Minnesota

CITY           SKY/WX    TMP DP  RH WIND       PRES   REMARKS
PRINCETON      CLOUDY    72  63  73 W10G23    29.77S
MORA           CLOUDY    68  61  77 NW13      29.77R
RUSH CITY      RAIN      67  60  79 NW6       29.75R
MOOSE LAKE     CLOUDY    64  59  82 N14G21    29.73R
HINCKLEY       CLOUDY    68  63  83 NW14      29.74R
CLOQUET        CLOUDY    64  59  82 NW15      29.73R
MCGREGOR       CLOUDY    64  61  88 N12       29.78R
$$
MNZ071>073-080-081-089-090-097-098-172300-
   Southwest Minnesota

CITY           SKY/WX    TMP DP  RH WIND       PRES   REMARKS
MONTEVIDEO     SUNNY     79  75  89 N13       29.85R
GRANITE FALLS  MOSUNNY   76  63  62 NW17      29.86S
CANBY          SUNNY     79  53  40 CALM      29.87S
MARSHALL       SUNNY     76  58  53 NW16G22   29.85S
REDWOOD FALLS  PTSUNNY   76  61  59 NW16G25   29.82S
OLIVIA         PTSUNNY   73  64  73 NW13G23   29.82S
PIPESTONE      SUNNY     77  63  61 NW10G16   29.89S
WINDOM         SUNNY     75  63  64 NW17      29.85S
WORTHINGTON    SUNNY     77  59  53 NW16      29.88S
JACKSON        SUNNY     73  63  68 NW18G24   29.86S
TRACY          SUNNY     76  64  67 NW15      29.86S
SLAYTON        SUNNY     76  53  45 NW20      29.89R
$$
MNZ065>067-074>077-082>085-091>093-172300-
   South Central Minnesota

CITY           SKY/WX    TMP DP  RH WIND       PRES   REMARKS
MANKATO        CLOUDY    72  64  76 NW13G22   29.80R
NEW ULM        PTSUNNY   73  63  68 NW13      29.81F
ST JAMES       PTSUNNY   72  63  73 NW13G21   29.84S
FAIRMONT       PTSUNNY   73  65  75 NW9       29.84R
GLENCOE        CLOUDY    73  67  81 NW15G23   29.79R
FARIBAULT      PTSUNNY   73  64  73 W15       29.78R
OWATONNA       MOSUNNY   73  64  73 NW18G24   29.78R
WASECA         PTSUNNY   72  63  73 W15G22    29.80S
ALBERT LEA     PTSUNNY   75  66  73 W13G23    29.80R
$$
MNZ078>079-086>088-094>096-172300-
   Southeast Minnesota

CITY           SKY/WX    TMP DP  RH WIND       PRES   REMARKS
ROCHESTER      CLOUDY    71  64  78 NW17G24   29.75R
RED WING       CLOUDY    72  61  68 NW7       29.71R
STANTON        PTSUNNY   74  64  70 NW20      29.74R
DODGE CENTER   CLOUDY    72  63  73 W14G22    29.77R
WINONA         CLOUDY    70  59  68 NW14G22   29.71R
AUSTIN         PTSUNNY   72  63  73 NW17G23   29.78R
PRESTON        CLOUDY    70  64  80 NW10G16   29.76R
$$
ABBREVIATIONS USED IN REMARKS
   TC - TEMPERATURES IN CELSIUS
  WCI - WIND CHILL INDEX
   HX - HEAT INDEX
  VSB - VISIBILITY
$$




USA.gov is the U.S. government's official web portal to all federal, state and local government web resources and services.